Regional Weather Roundup
Issued by NWS Albany, NY

Home | Current Version | Previous Version | Text Only | Print | Product List | Glossary On
Versions: 1 2 3 4 5 6 7 8 9 10 11 12 13 14 15 16 17 18 19 20 21 22 23 24 25 26 27 28 29 30 31 32 33 34 35 36 37 38 39 40 41 42 43 44 45 46 47 48 49 50
000
ASUS41 KALY 031110
RWRALY

NEW YORK STATE HOURLY WEATHER ROUNDUP
NATIONAL WEATHER SERVICE ALBANY NY
700 AM EDT SUN MAY 03 2015

NOTE: "FAIR" INDICATES FEW OR NO CLOUDS BELOW 12,000 FEET WITH NO
SIGNIFICANT WEATHER AND/OR NO OBSTRUCTIONS TO VISIBILITY.

NYZ032-033-038>043-046>054-057>066-NYZ062>081-031200-
EAST


CITY           SKY/WX    TMP DP  RH WIND       PRES   REMARKS
ALBANY         MOSUNNY   51  42  71 S3        30.05R
GLENS FALLS    PTSUNNY   46  39  76 CALM      30.03R
POUGHKEEPSIE   MOSUNNY   45  39  79 CALM      30.06R
NEWBURGH       SUNNY     46  43  87 CALM      30.07R
MONTGOMERY     MOSUNNY   43  40  89 CALM      30.06R
WHITE PLAINS   SUNNY     48  39  71 CALM      30.06R
ISLIP          MOSUNNY   48  43  82 SW5       30.06R
NEW YORK CITY  MOSUNNY   52  36  54 SW6       30.07R
CENTRAL PARK   SUNNY     52  36  54 VRB3      30.10R
$$

NYZ005>009-017-018-044>046-055-056-031200-
CENTRAL


CITY           SKY/WX    TMP DP  RH WIND       PRES   REMARKS
FULTON         MOSUNNY   45  40  82 CALM      30.04R
SYRACUSE       MOSUNNY   47  40  76 E3        30.04R
ROME           MOSUNNY   42  38  85 CALM      30.07R
ELMIRA         CLEAR     39  36  89 CALM      30.08R
BINGHAMTON     SUNNY     51  36  56 SW5       30.07R
MONTICELLO     SUNNY     41  36  81 CALM      30.09R
$$

NYZ026>034-041>043-031200-
NORTH


CITY           SKY/WX    TMP DP  RH WIND       PRES   REMARKS
WATERTOWN      SUNNY     49  36  61 CALM      30.03R
FORT DRUM      NOT AVBL
MASSENA        MOSUNNY   53  40  61 SW9       30.00R
SARANAC LAKE   MOSUNNY   38  34  85 CALM      30.01R
PLATTSBURGH    MOSUNNY   50  40  68 SE3       29.98R
$$

NYZ001>004-010>016-019>021-031200-
WEST


CITY           SKY/WX    TMP DP  RH WIND       PRES   REMARKS
NIAGARA FALLS  PTCLDY    47  37  68 SW5       30.04R
BUFFALO        FAIR      47  37  68 S6        30.04R
DUNKIRK        FAIR      54  38  54 S8        30.05R
JAMESTOWN      CLEAR     46  32  57 SE5       30.09R
WELLSVILLE     FAIR      50  30  46 CALM      30.10R
ROCHESTER      MOCLDY    51  38  60 SW8       30.04R
PENN YAN       CLEAR     49  38  65 SW10      30.05R
$$

             KEY
       WCI = WIND CHILL INDEX
       VSB = VISIBILITY
       HX  = HEAT INDEX
$$



USA.gov is the U.S. government's official web portal to all federal, state and local government web resources and services.